TimeEST,TemperatureF,Dew PointF,Humidity,Sea Level PressureIn,VisibilityMPH,Wind Direction,Wind SpeedMPH,Gust SpeedMPH,PrecipitationIn,Events,Conditions,WindDirDegrees,DateUTC
12:15 AM,48.2,46.4,93,30.05,10.0,Calm,Calm,-,N/A,,Clear,0,2012-11-04 04:15:00
12:35 AM,48.2,46.4,93,30.05,10.0,Calm,Calm,-,N/A,,Clear,0,2012-11-04 04:35:00
12:55 AM,48.2,46.4,93,30.05,10.0,Calm,Calm,-,N/A,,Clear,0,2012-11-04 04:55:00
1:15 AM,48.2,48.2,100,30.04,10.0,Calm,Calm,-,N/A,,Clear,0,2012-11-04 05:15:00
1:35 AM,50.0,48.2,94,30.04,10.0,Calm,Calm,-,N/A,,Clear,0,2012-11-04 05:35:00
1:55 AM,48.2,48.2,100,30.04,10.0,Calm,Calm,-,N/A,,Clear,0,2012-11-04 05:55:00
1:15 AM,48.2,46.4,93,30.03,10.0,Calm,Calm,-,N/A,,Clear,0,2012-11-04 06:15:00
1:35 AM,48.2,46.4,93,30.02,10.0,Calm,Calm,-,N/A,,Clear,0,2012-11-04 06:35:00
1:55 AM,48.2,48.2,100,30.02,10.0,Calm,Calm,-,N/A,,Clear,0,2012-11-04 06:55:00
2:15 AM,50.0,50.0,100,30.02,10.0,Calm,Calm,-,N/A,,Clear,0,2012-11-04 07:15:00
2:35 AM,48.2,48.2,100,30.02,10.0,South,3.5,-,N/A,,Clear,190,2012-11-04 07:35:00
2:55 AM,50.0,48.2,94,30.01,10.0,South,4.6,-,N/A,,Clear,180,2012-11-04 07:55:00
3:15 AM,57.2,57.2,100,30.00,10.0,SSE,5.8,-,N/A,,Clear,160,2012-11-04 08:15:00
3:35 AM,57.2,57.2,100,30.00,10.0,SE,5.8,-,N/A,,Clear,140,2012-11-04 08:35:00
3:55 AM,57.2,57.2,100,30.00,10.0,SSE,5.8,-,N/A,,Clear,150,2012-11-04 08:55:00
4:15 AM,57.2,57.2,100,30.00,10.0,Calm,Calm,-,N/A,,Clear,0,2012-11-04 09:15:00
4:35 AM,53.6,51.8,94,30.00,7.0,NE,4.6,-,N/A,,Clear,50,2012-11-04 09:35:00
4:55 AM,55.4,55.4,100,30.00,10.0,ENE,3.5,-,N/A,,Mostly Cloudy,70,2012-11-04 09:55:00
5:15 AM,57.2,57.2,100,30.00,10.0,SSE,3.5,-,N/A,,Mostly Cloudy,160,2012-11-04 10:15:00
5:35 AM,60.8,60.8,100,29.99,10.0,SSE,11.5,-,N/A,,Partly Cloudy,160,2012-11-04 10:35:00
5:50 AM,62.6,62.6,100,29.99,10.0,SSE,10.4,-,N/A,,Scattered Clouds,160,2012-11-04 10:50:00
6:50 AM,62.6,60.8,94,29.99,10.0,SW,8.1,-,N/A,,Clear,220,2012-11-04 11:50:00
8:45 AM,68.0,60.8,78,29.98,10.0,SW,9.2,-,N/A,,Clear,230,2012-11-04 13:45:00
9:45 AM,71.6,59.0,64,29.97,10.0,West,9.2,-,N/A,,Clear,270,2012-11-04 14:45:00
10:45 AM,75.2,59.0,57,29.96,10.0,West,11.5,-,N/A,,Clear,270,2012-11-04 15:45:00
10:50 AM,77.0,59.0,54,30.02,10.0,SSW,9.2,-,N/A,,Clear,210,2012-11-04 15:50:00
11:50 AM,78.8,55.4,44,29.95,10.0,West,11.5,-,N/A,,Clear,270,2012-11-04 16:50:00
12:45 PM,78.8,57.2,47,29.92,10.0,WSW,11.5,-,N/A,,Clear,240,2012-11-04 17:45:00
1:50 PM,78.8,55.4,44,29.91,10.0,West,9.2,-,N/A,,Clear,260,2012-11-04 18:50:00
2:50 PM,80.6,55.4,42,29.90,10.0,West,9.2,-,N/A,,Clear,270,2012-11-04 19:50:00
4:45 PM,71.6,62.6,73,29.90,10.0,Variable,6.9,-,N/A,,Scattered Clouds,0,2012-11-04 21:45:00
5:40 PM,66.2,53.6,64,29.90,10.0,North,5.8,-,N/A,Rain-Thunderstorm,Light Thunderstorms and Rain,360,2012-11-04 22:40:00
6:45 PM,62.6,60.8,94,29.92,15.0,East,9.2,-,N/A,Rain-Thunderstorm,Thunderstorms and Rain,90,2012-11-04 23:45:00
6:55 PM,64.4,55.4,73,29.95,4.0,West,12.7,23.0,N/A,Rain-Thunderstorm,Thunderstorms and Rain,260,2012-11-04 23:55:00
7:50 PM,60.8,59.0,94,29.92,8.0,NE,11.5,-,N/A,Rain,Light Rain,40,2012-11-05 00:50:00
8:45 PM,59.0,57.2,94,29.97,10.0,NNW,15.0,-,N/A,Rain,Light Rain,340,2012-11-05 01:45:00
9:50 PM,57.2,55.4,94,29.95,10.0,NE,8.1,-,N/A,,Scattered Clouds,40,2012-11-05 02:50:00
10:20 PM,55.4,55.4,100,-9999,-9999.0,North,-9999.0,-,N/A,,Mostly Cloudy,0,2012-11-05 03:20:00